Regional Weather Roundup
Issued by NWS Northern Indiana

Home | Current Version | Previous Version | Text Only | Print | Product List | Glossary On
Versions: 1 2 3 4 5 6 7 8 9 10 11 12 13 14 15 16 17 18 19 20 21 22 23 24 25 26 27 28 29 30 31 32 33 34 35 36 37 38 39 40 41 42 43 44 45 46 47 48 49 50
972
ASUS43 KIWX 250600
RWRIWX

KIWX WEATHER ROUNDUP
NATIONAL WEATHER SERVICE NORTHERN INDIANA
100 AM EST SAT NOV 25 2017

NOTE: "FAIR" INDICATES FEW OR NO CLOUDS BELOW 12,000 FEET WITH NO
SIGNIFICANT WEATHER AND/OR OBSTRUCTIONS TO VISIBILITY.

* THESE STATIONS ARE NOT UNDER NWS QUALITY CONTROL. THEY ALSO MAY NOT
  REPORT WEATHER SUCH AS PRECIPITATION OR FOG.

INZ001>027-250700-
NORTHERN INDIANA

CITY           SKY/WX    TMP DP  RH WIND       PRES   REMARKS
MICHIGAN CITY* CLOUDY    50  37  62 SW10      29.61R
SOUTH BEND     CLEAR     48  37  65 SW15      29.58R
6HR MIN TEMP:  48; 6HR MAX TEMP:  52;

GOSHEN         CLOUDY    49  33  54 SW13      29.57S
6HR MIN TEMP:  49; 6HR MAX TEMP:  52;

MONTICELLO*    CLOUDY    50  35  56 SW13G20   29.63R
6HR MIN TEMP:  50; 6HR MAX TEMP:  52;

FORT WAYNE     MOCLDY    47  34  60 SW14      29.61S
6HR MIN TEMP:  47; 6HR MAX TEMP:  51;

PERU/GRISSOM   CLOUDY    50  36  58 SW20      29.61F
6HR MIN TEMP:  48; 6HR MAX TEMP:  52;


$$
INZ028>050-250700-
CENTRAL INDIANA

CITY           SKY/WX    TMP DP  RH WIND       PRES   REMARKS
LAFAYETTE      MOCLDY    50  37  61 W13       29.65R
6HR MIN TEMP:  50; 6HR MAX TEMP:  52;

KOKOMO*        CLOUDY    52  35  52 SW22G30   29.64S
6HR MIN TEMP:  50; 6HR MAX TEMP:  52;

MUNCIE*        PTCLDY    51  29  42 SW17G23   29.65R
6HR MIN TEMP:  50; 6HR MAX TEMP:  52;

INDIANAPOLIS   CLOUDY    53  33  46 SW22G31   29.69R
6HR MIN TEMP:  50; 6HR MAX TEMP:  54;


$$
MIZ043>046-050>051-056>058-064>065-071>073-077>080-250700-
SOUTHWEST LOWER MICHIGAN

CITY           SKY/WX    TMP DP  RH WIND       PRES   REMARKS
BATTLE CREEK   CLOUDY    50  35  56 SW13      29.54R
6HR MIN TEMP:  49; 6HR MAX TEMP:  51;

BENTON HARBOR  CLOUDY    52  39  61 W18G24    29.57R
6HR MIN TEMP:  52; 6HR MAX TEMP:  55;

COLDWATER*     CLOUDY    50  32  50 SW13G22   29.55R
6HR MIN TEMP:  48; 6HR MAX TEMP:  51;

HILLSDALE*     PTCLDY    46  32  57 SW14G22   29.54F
HOLLAND        LGT RAIN  52  43  71 W14       29.55R
6HR MIN TEMP:  52; 6HR MAX TEMP:  56; 6HR PCP: TRACE;

GRAND RAPIDS   CLOUDY    52  42  69 W14       29.50R
6HR MIN TEMP:  52; 6HR MAX TEMP:  54;

KALAMAZOO      CLOUDY    50  33  52 SW10      29.54R
6HR MIN TEMP:  50; 6HR MAX TEMP:  52;

STURGIS*       PTCLDY    48  35  60 SW10      29.56R
6HR MIN TEMP:  46; 6HR MAX TEMP:  50;

THREE RIVERS*  FAIR      50  35  56 SW9       29.55S
6HR MIN TEMP:  50; 6HR MAX TEMP:  52;


$$
OHZ001>008-015>018-024>025-250700-
NORTHWEST OHIO

CITY           SKY/WX    TMP DP  RH WIND       PRES   REMARKS
DEFIANCE       CLOUDY    47  31  53 SW15G21   29.59F
6HR MIN TEMP:  46; 6HR MAX TEMP:  50;

FINDLAY        PTCLDY    52  29  41 SW22G33   29.61F
6HR MIN TEMP:  47; 6HR MAX TEMP:  52;

TOLEDO EXPRESS CLOUDY    48  32  53 SW13      29.58S
6HR MIN TEMP:  48; 6HR MAX TEMP:  51;

TOLEDO METCALF PTCLDY    47  31  53 SW14      29.60F
6HR MIN TEMP:  47; 6HR MAX TEMP:  50;

LIMA           PTCLDY    48  30  49 SW16G26   29.63F
6HR MIN TEMP:  47; 6HR MAX TEMP:  50;


$$
AND FOR LAKE MICHIGAN COASTAL AND OPEN LAKE BUOY OBSERVATIONS

STATION/POSITION TEMP    WIND        PRES    VSBY  WAVE
                 AIR SEA DIR/SP/G                  HT/PER
                 (F)     (DEG/KT/KT) (MB)    (MI)  (FT/S)
CALUMET HARBOR    50     230/  6/  9 1001.8R
MICHIGAN CITY     51     210/ 15/ 15   N/A
BURNS HARBOR      51     230/ 13/ 17 1003.0R
SAINT JOSEPH      49     200/ 10/ 18 1001.0
SOUTH LAKE BUOY   50 47  270/ 12/ 14  999.6          4/ 6

$$
&&




USA.gov is the U.S. government's official web portal to all federal, state and local government web resources and services.